Time,TemperatureF,DewpointF,PressureIn,WindDirection,WindDirectionDegrees,WindSpeedMPH,WindSpeedGustMPH,Humidity,HourlyPrecipIn,Conditions,Clouds,dailyrainin,SoftwareType,DateUTC
2013-06-10 00:01:00,77.2,75.0,30.09,ENE,57,0.0,1.0,93,0.00,,,0.00,WUHU216DAVISVP2,2013-06-10 04:01:00,
2013-06-10 00:06:00,77.2,75.0,30.09,ENE,65,0.0,2.0,93,0.00,,,0.00,WUHU216DAVISVP2,2013-06-10 04:06:00,
2013-06-10 00:11:00,77.2,75.0,30.09,ENE,65,0.0,2.0,93,0.00,,,0.00,WUHU216DAVISVP2,2013-06-10 04:11:00,
2013-06-10 00:16:00,77.2,75.0,30.09,ENE,65,0.0,1.0,93,0.00,,,0.00,WUHU216DAVISVP2,2013-06-10 04:16:00,
2013-06-10 00:21:00,77.3,75.1,30.09,ENE,65,0.0,1.0,93,0.00,,,0.00,WUHU216DAVISVP2,2013-06-10 04:21:00,
2013-06-10 00:26:00,77.3,75.1,30.09,ENE,57,0.0,1.0,93,0.00,,,0.00,WUHU216DAVISVP2,2013-06-10 04:26:00,
2013-06-10 00:31:00,77.2,75.0,30.09,ENE,57,0.0,1.0,93,0.00,,,0.00,WUHU216DAVISVP2,2013-06-10 04:31:00,
2013-06-10 00:36:00,77.2,75.0,30.10,ENE,57,0.0,1.0,93,0.00,,,0.00,WUHU216DAVISVP2,2013-06-10 04:36:00,
2013-06-10 00:41:00,77.1,74.9,30.10,ENE,57,0.0,1.0,93,0.00,,,0.00,WUHU216DAVISVP2,2013-06-10 04:41:00,
2013-06-10 00:47:00,77.1,74.9,30.10,ENE,57,0.0,0.0,93,0.00,,,0.00,WUHU216DAVISVP2,2013-06-10 04:47:00,
2013-06-10 00:52:00,77.0,74.8,30.10,ENE,57,0.0,0.0,93,0.00,,,0.00,WUHU216DAVISVP2,2013-06-10 04:52:00,
2013-06-10 00:57:00,76.9,74.7,30.10,ENE,64,0.0,0.0,93,0.00,,,0.00,WUHU216DAVISVP2,2013-06-10 04:57:00,
2013-06-10 01:02:00,76.9,75.0,30.10,ENE,64,0.0,0.0,94,0.00,,,0.00,WUHU216DAVISVP2,2013-06-10 05:02:00,
2013-06-10 01:07:00,76.9,75.0,30.10,ENE,64,0.0,0.0,94,0.00,,,0.00,WUHU216DAVISVP2,2013-06-10 05:07:00,
2013-06-10 01:12:00,76.9,75.0,30.10,ENE,64,0.0,0.0,94,0.00,,,0.00,WUHU216DAVISVP2,2013-06-10 05:12:00,
2013-06-10 01:17:00,76.8,74.9,30.10,ENE,64,0.0,0.0,94,0.00,,,0.00,WUHU216DAVISVP2,2013-06-10 05:17:00,
2013-06-10 01:22:00,76.8,74.9,30.10,ENE,64,0.0,0.0,94,0.00,,,0.00,WUHU216DAVISVP2,2013-06-10 05:22:00,
2013-06-10 01:27:00,76.7,74.8,30.10,ENE,64,0.0,0.0,94,0.00,,,0.00,WUHU216DAVISVP2,2013-06-10 05:27:00,
2013-06-10 01:32:00,76.7,74.8,30.10,ENE,64,0.0,0.0,94,0.00,,,0.00,WUHU216DAVISVP2,2013-06-10 05:32:00,
2013-06-10 01:37:00,76.7,75.1,30.09,ENE,64,0.0,0.0,95,0.00,,,0.00,WUHU216DAVISVP2,2013-06-10 05:37:00,
2013-06-10 01:42:00,76.6,75.0,30.09,ENE,64,0.0,0.0,95,0.00,,,0.00,WUHU216DAVISVP2,2013-06-10 05:42:00,
2013-06-10 01:47:00,76.5,74.9,30.09,ENE,64,0.0,0.0,95,0.00,,,0.00,WUHU216DAVISVP2,2013-06-10 05:47:00,
2013-06-10 01:52:00,76.5,74.9,30.09,ENE,64,0.0,0.0,95,0.00,,,0.00,WUHU216DAVISVP2,2013-06-10 05:52:00,
2013-06-10 01:57:00,76.4,74.8,30.09,ENE,64,0.0,0.0,95,0.00,,,0.00,WUHU216DAVISVP2,2013-06-10 05:57:00,
2013-06-10 02:02:00,76.3,74.7,30.09,ENE,64,0.0,0.0,95,0.00,,,0.00,WUHU216DAVISVP2,2013-06-10 06:02:00,
2013-06-10 02:07:00,76.2,74.6,30.09,ENE,64,0.0,0.0,95,0.00,,,0.00,WUHU216DAVISVP2,2013-06-10 06:07:00,
2013-06-10 02:12:00,76.1,74.5,30.09,ENE,64,0.0,0.0,95,0.00,,,0.00,WUHU216DAVISVP2,2013-06-10 06:12:00,
2013-06-10 02:17:00,76.0,74.4,30.09,ENE,64,0.0,0.0,95,0.00,,,0.00,WUHU216DAVISVP2,2013-06-10 06:17:00,
2013-06-10 02:22:00,75.9,74.7,30.09,ENE,63,0.0,1.0,96,0.00,,,0.00,WUHU216DAVISVP2,2013-06-10 06:22:00,
2013-06-10 02:27:00,75.8,74.6,30.08,ENE,63,0.0,1.0,96,0.00,,,0.00,WUHU216DAVISVP2,2013-06-10 06:27:00,
2013-06-10 02:32:00,75.8,74.6,30.08,ENE,63,0.0,0.0,96,0.00,,,0.00,WUHU216DAVISVP2,2013-06-10 06:32:00,
2013-06-10 02:37:00,75.7,74.5,30.08,ENE,63,0.0,0.0,96,0.00,,,0.00,WUHU216DAVISVP2,2013-06-10 06:37:00,
2013-06-10 02:42:00,75.6,74.4,30.08,ENE,63,0.0,0.0,96,0.00,,,0.00,WUHU216DAVISVP2,2013-06-10 06:42:00,
2013-06-10 02:47:00,75.5,74.3,30.08,ENE,63,0.0,0.0,96,0.00,,,0.00,WUHU216DAVISVP2,2013-06-10 06:47:00,
2013-06-10 02:52:00,75.5,74.3,30.08,ENE,63,0.0,0.0,96,0.00,,,0.00,WUHU216DAVISVP2,2013-06-10 06:52:00,
2013-06-10 02:57:00,75.5,74.3,30.07,ENE,63,0.0,0.0,96,0.00,,,0.00,WUHU216DAVISVP2,2013-06-10 06:57:00,
2013-06-10 03:02:00,75.5,74.3,30.07,ENE,63,0.0,0.0,96,0.00,,,0.00,WUHU216DAVISVP2,2013-06-10 07:02:00,
2013-06-10 03:07:00,75.5,74.6,30.07,ENE,63,0.0,0.0,97,0.00,,,0.00,WUHU216DAVISVP2,2013-06-10 07:07:00,
2013-06-10 03:12:00,75.5,74.6,30.07,ENE,63,0.0,0.0,97,0.00,,,0.00,WUHU216DAVISVP2,2013-06-10 07:12:00,
2013-06-10 03:17:00,75.6,74.7,30.07,ENE,63,0.0,0.0,97,0.00,,,0.00,WUHU216DAVISVP2,2013-06-10 07:17:00,
2013-06-10 03:22:00,75.6,74.7,30.07,ENE,63,0.0,0.0,97,0.00,,,0.00,WUHU216DAVISVP2,2013-06-10 07:22:00,
2013-06-10 03:27:00,75.6,74.7,30.07,ENE,63,0.0,0.0,97,0.00,,,0.00,WUHU216DAVISVP2,2013-06-10 07:27:00,
2013-06-10 03:32:00,75.6,74.7,30.07,ENE,63,0.0,0.0,97,0.00,,,0.00,WUHU216DAVISVP2,2013-06-10 07:32:00,
2013-06-10 03:37:00,75.6,74.7,30.07,ENE,63,0.0,0.0,97,0.00,,,0.00,WUHU216DAVISVP2,2013-06-10 07:37:00,
2013-06-10 03:42:00,75.7,74.8,30.07,ENE,72,0.0,0.0,97,0.00,,,0.00,WUHU216DAVISVP2,2013-06-10 07:42:00,
2013-06-10 03:47:00,75.7,74.8,30.07,ENE,72,0.0,0.0,97,0.00,,,0.00,WUHU216DAVISVP2,2013-06-10 07:47:00,
2013-06-10 03:52:00,75.7,74.8,30.06,ENE,72,0.0,0.0,97,0.00,,,0.00,WUHU216DAVISVP2,2013-06-10 07:52:00,
2013-06-10 03:57:00,75.7,74.8,30.06,ENE,72,0.0,0.0,97,0.00,,,0.00,WUHU216DAVISVP2,2013-06-10 07:57:00,
2013-06-10 04:02:00,75.7,74.8,30.06,ENE,72,0.0,0.0,97,0.00,,,0.00,WUHU216DAVISVP2,2013-06-10 08:02:00,
2013-06-10 04:07:00,75.7,74.8,30.06,East,85,0.0,1.0,97,0.00,,,0.00,WUHU216DAVISVP2,2013-06-10 08:07:00,
2013-06-10 04:12:00,75.8,74.9,30.06,East,85,0.0,1.0,97,0.00,,,0.00,WUHU216DAVISVP2,2013-06-10 08:12:00,
2013-06-10 04:17:00,75.8,74.9,30.06,East,85,0.0,0.0,97,0.00,,,0.00,WUHU216DAVISVP2,2013-06-10 08:17:00,
2013-06-10 04:22:00,75.8,74.9,30.06,East,85,0.0,0.0,97,0.00,,,0.00,WUHU216DAVISVP2,2013-06-10 08:22:00,
2013-06-10 04:27:00,75.8,74.9,30.06,East,85,0.0,0.0,97,0.00,,,0.00,WUHU216DAVISVP2,2013-06-10 08:27:00,
2013-06-10 04:32:00,75.8,74.9,30.06,East,85,0.0,0.0,97,0.00,,,0.00,WUHU216DAVISVP2,2013-06-10 08:32:00,
2013-06-10 04:37:00,75.8,74.9,30.06,East,85,0.0,0.0,97,0.00,,,0.00,WUHU216DAVISVP2,2013-06-10 08:37:00,
2013-06-10 04:42:00,75.9,75.0,30.06,East,85,0.0,0.0,97,0.00,,,0.00,WUHU216DAVISVP2,2013-06-10 08:42:00,
2013-06-10 04:47:00,75.9,75.0,30.06,East,85,0.0,0.0,97,0.00,,,0.00,WUHU216DAVISVP2,2013-06-10 08:47:00,
2013-06-10 04:52:00,75.9,75.0,30.06,East,85,0.0,0.0,97,0.00,,,0.00,WUHU216DAVISVP2,2013-06-10 08:52:00,
2013-06-10 04:57:00,75.9,75.0,30.06,East,85,0.0,0.0,97,0.00,,,0.00,WUHU216DAVISVP2,2013-06-10 08:57:00,
2013-06-10 05:02:00,75.9,75.0,30.06,East,85,0.0,0.0,97,0.00,,,0.00,WUHU216DAVISVP2,2013-06-10 09:02:00,
2013-06-10 05:07:00,75.9,75.0,30.06,East,85,0.0,0.0,97,0.00,,,0.00,WUHU216DAVISVP2,2013-06-10 09:07:00,
2013-06-10 05:12:00,75.9,75.0,30.06,East,85,0.0,0.0,97,0.00,,,0.00,WUHU216DAVISVP2,2013-06-10 09:12:00,
2013-06-10 05:17:00,75.9,75.0,30.07,East,85,0.0,0.0,97,0.00,,,0.00,WUHU216DAVISVP2,2013-06-10 09:17:00,
2013-06-10 05:22:00,75.9,75.0,30.07,East,85,0.0,0.0,97,0.00,,,0.00,WUHU216DAVISVP2,2013-06-10 09:22:00,
2013-06-10 05:27:00,75.9,75.0,30.07,East,85,0.0,0.0,97,0.00,,,0.00,WUHU216DAVISVP2,2013-06-10 09:27:00,
2013-06-10 05:32:00,75.9,75.0,30.07,East,85,0.0,0.0,97,0.00,,,0.00,WUHU216DAVISVP2,2013-06-10 09:32:00,
2013-06-10 05:37:00,75.9,75.0,30.07,East,85,0.0,0.0,97,0.00,,,0.00,WUHU216DAVISVP2,2013-06-10 09:37:00,
2013-06-10 05:42:00,75.9,75.0,30.07,East,85,0.0,0.0,97,0.00,,,0.00,WUHU216DAVISVP2,2013-06-10 09:42:00,
2013-06-10 05:47:00,75.9,75.0,30.07,East,85,0.0,0.0,97,0.00,,,0.00,WUHU216DAVISVP2,2013-06-10 09:47:00,
2013-06-10 05:52:00,75.8,74.9,30.07,East,85,0.0,0.0,97,0.00,,,0.00,WUHU216DAVISVP2,2013-06-10 09:52:00,
2013-06-10 05:57:00,75.8,74.9,30.07,East,85,0.0,0.0,97,0.00,,,0.00,WUHU216DAVISVP2,2013-06-10 09:57:00,
2013-06-10 06:02:00,75.8,74.9,30.07,East,85,0.0,0.0,97,0.00,,,0.00,WUHU216DAVISVP2,2013-06-10 10:02:00,
2013-06-10 06:07:00,75.7,74.8,30.07,East,85,0.0,0.0,97,0.00,,,0.00,WUHU216DAVISVP2,2013-06-10 10:07:00,
2013-06-10 06:12:00,75.7,74.8,30.07,East,85,0.0,0.0,97,0.00,,,0.00,WUHU216DAVISVP2,2013-06-10 10:12:00,
2013-06-10 06:17:00,75.7,74.8,30.08,East,85,0.0,0.0,97,0.00,,,0.00,WUHU216DAVISVP2,2013-06-10 10:17:00,
2013-06-10 06:22:00,75.7,74.8,30.08,East,85,0.0,0.0,97,0.00,,,0.00,WUHU216DAVISVP2,2013-06-10 10:22:00,
2013-06-10 06:27:00,75.7,74.8,30.08,East,85,0.0,0.0,97,0.00,,,0.00,WUHU216DAVISVP2,2013-06-10 10:27:00,
2013-06-10 06:32:00,75.6,74.7,30.08,East,85,0.0,0.0,97,0.00,,,0.00,WUHU216DAVISVP2,2013-06-10 10:32:00,
2013-06-10 06:37:00,75.7,74.8,30.08,East,85,0.0,0.0,97,0.00,,,0.00,WUHU216DAVISVP2,2013-06-10 10:37:00,
2013-06-10 06:42:00,75.6,74.7,30.08,East,85,0.0,0.0,97,0.00,,,0.00,WUHU216DAVISVP2,2013-06-10 10:42:00,
2013-06-10 06:47:00,75.6,74.7,30.08,East,85,0.0,0.0,97,0.00,,,0.00,WUHU216DAVISVP2,2013-06-10 10:47:00,
2013-06-10 06:52:00,75.6,74.7,30.09,East,85,0.0,0.0,97,0.00,,,0.00,WUHU216DAVISVP2,2013-06-10 10:52:00,
2013-06-10 06:57:00,75.5,74.6,30.09,East,85,0.0,0.0,97,0.00,,,0.00,WUHU216DAVISVP2,2013-06-10 10:57:00,
2013-06-10 07:02:00,75.6,74.7,30.09,East,85,0.0,0.0,97,0.00,,,0.00,WUHU216DAVISVP2,2013-06-10 11:02:00,
2013-06-10 07:07:00,75.7,74.8,30.09,East,85,0.0,0.0,97,0.00,,,0.00,WUHU216DAVISVP2,2013-06-10 11:07:00,
2013-06-10 07:12:00,75.7,75.1,30.09,East,85,0.0,0.0,98,0.00,,,0.00,WUHU216DAVISVP2,2013-06-10 11:12:00,
2013-06-10 07:17:00,75.8,75.2,30.09,East,85,0.0,0.0,98,0.00,,,0.00,WUHU216DAVISVP2,2013-06-10 11:17:00,
2013-06-10 07:22:00,75.8,75.2,30.09,East,86,0.0,0.0,98,0.00,,,0.00,WUHU216DAVISVP2,2013-06-10 11:22:00,
2013-06-10 07:27:00,75.9,75.3,30.09,East,86,0.0,0.0,98,0.00,,,0.00,WUHU216DAVISVP2,2013-06-10 11:27:00,
2013-06-10 07:32:00,76.0,75.4,30.09,East,86,0.0,0.0,98,0.00,,,0.00,WUHU216DAVISVP2,2013-06-10 11:32:00,
2013-06-10 07:37:00,76.1,75.5,30.09,East,86,0.0,0.0,98,0.00,,,0.00,WUHU216DAVISVP2,2013-06-10 11:37:00,
2013-06-10 07:42:00,76.1,75.5,30.09,East,86,0.0,0.0,98,0.00,,,0.00,WUHU216DAVISVP2,2013-06-10 11:42:00,
2013-06-10 07:47:00,76.3,75.7,30.09,East,86,0.0,1.0,98,0.00,,,0.00,WUHU216DAVISVP2,2013-06-10 11:47:00,
2013-06-10 07:52:00,76.4,75.8,30.09,East,86,0.0,1.0,98,0.00,,,0.00,WUHU216DAVISVP2,2013-06-10 11:52:00,
2013-06-10 07:57:00,76.4,75.8,30.09,ENE,65,0.0,2.0,98,0.00,,,0.00,WUHU216DAVISVP2,2013-06-10 11:57:00,
2013-06-10 08:02:00,76.5,75.6,30.09,East,98,0.0,2.0,97,0.00,,,0.00,WUHU216DAVISVP2,2013-06-10 12:02:00,
2013-06-10 08:07:00,76.6,75.7,30.09,ESE,114,0.0,1.0,97,0.00,,,0.00,WUHU216DAVISVP2,2013-06-10 12:07:00,
2013-06-10 08:12:00,76.7,75.8,30.09,ENE,66,0.0,1.0,97,0.00,,,0.00,WUHU216DAVISVP2,2013-06-10 12:12:00,
2013-06-10 08:17:00,76.9,76.0,30.09,NNE,22,0.0,1.0,97,0.00,,,0.00,WUHU216DAVISVP2,2013-06-10 12:17:00,
2013-06-10 08:22:00,77.0,76.1,30.09,NNE,23,0.0,1.0,97,0.00,,,0.00,WUHU216DAVISVP2,2013-06-10 12:22:00,
2013-06-10 08:27:00,77.2,75.9,30.09,NE,34,0.0,1.0,96,0.00,,,0.00,WUHU216DAVISVP2,2013-06-10 12:27:00,
2013-06-10 08:32:00,77.4,76.1,30.09,NNE,22,0.0,1.0,96,0.00,,,0.00,WUHU216DAVISVP2,2013-06-10 12:32:00,
2013-06-10 08:37:00,77.6,76.3,30.09,SSE,155,0.0,1.0,96,0.00,,,0.00,WUHU216DAVISVP2,2013-06-10 12:37:00,
2013-06-10 08:42:00,77.8,76.5,30.09,NW,315,0.0,1.0,96,0.00,,,0.00,WUHU216DAVISVP2,2013-06-10 12:42:00,
2013-06-10 08:47:00,78.1,76.5,30.09,NW,322,0.0,1.0,95,0.00,,,0.00,WUHU216DAVISVP2,2013-06-10 12:47:00,
2013-06-10 08:52:00,78.3,76.4,30.10,SSW,203,0.0,2.0,94,0.00,,,0.00,WUHU216DAVISVP2,2013-06-10 12:52:00,
2013-06-10 08:57:00,78.7,76.8,30.10,East,101,0.0,2.0,94,0.00,,,0.00,WUHU216DAVISVP2,2013-06-10 12:57:00,
2013-06-10 09:02:00,79.0,76.8,30.10,East,101,0.0,2.0,93,0.00,,,0.00,WUHU216DAVISVP2,2013-06-10 13:02:00,
2013-06-10 09:07:00,79.3,76.8,30.10,NNE,30,0.0,1.0,92,0.00,,,0.00,WUHU216DAVISVP2,2013-06-10 13:07:00,
2013-06-10 09:12:00,79.3,76.4,30.10,NNE,27,0.0,1.0,91,0.00,,,0.00,WUHU216DAVISVP2,2013-06-10 13:12:00,
2013-06-10 09:17:00,79.3,76.4,30.10,NNE,27,0.0,1.0,91,0.00,,,0.00,WUHU216DAVISVP2,2013-06-10 13:17:00,
2013-06-10 09:22:00,79.3,76.1,30.10,NNE,22,0.0,1.0,90,0.00,,,0.00,WUHU216DAVISVP2,2013-06-10 13:22:00,
2013-06-10 09:27:00,79.5,76.0,30.10,NNE,22,0.0,1.0,89,0.00,,,0.00,WUHU216DAVISVP2,2013-06-10 13:27:00,
2013-06-10 09:32:00,79.8,76.3,30.10,SSE,157,0.0,3.0,89,0.00,,,0.00,WUHU216DAVISVP2,2013-06-10 13:32:00,
2013-06-10 09:37:00,80.0,76.1,30.10,NNE,28,0.0,3.0,88,0.00,,,0.00,WUHU216DAVISVP2,2013-06-10 13:37:00,
2013-06-10 09:42:00,80.3,76.4,30.10,NNE,18,0.0,2.0,88,0.00,,,0.00,WUHU216DAVISVP2,2013-06-10 13:42:00,
2013-06-10 09:47:00,80.5,76.0,30.09,ESE,105,0.0,2.0,86,0.00,,,0.00,WUHU216DAVISVP2,2013-06-10 13:47:00,
2013-06-10 09:52:00,80.8,76.3,30.10,NE,35,0.0,3.0,86,0.00,,,0.00,WUHU216DAVISVP2,2013-06-10 13:52:00,
2013-06-10 09:58:00,81.0,75.8,30.09,East,97,0.0,3.0,84,0.00,,,0.00,WUHU216DAVISVP2,2013-06-10 13:58:00,
2013-06-10 10:02:00,81.4,76.5,30.09,East,86,0.0,2.0,85,0.00,,,0.00,WUHU216DAVISVP2,2013-06-10 14:02:00,
2013-06-10 10:08:00,81.7,76.8,30.09,NE,46,0.0,2.0,85,0.00,,,0.00,WUHU216DAVISVP2,2013-06-10 14:08:00,
2013-06-10 10:13:00,82.1,76.9,30.09,ENE,57,0.0,1.0,84,0.00,,,0.00,WUHU216DAVISVP2,2013-06-10 14:13:00,
2013-06-10 10:18:00,82.3,76.7,30.09,SW,234,0.0,1.0,83,0.00,,,0.00,WUHU216DAVISVP2,2013-06-10 14:18:00,
2013-06-10 10:23:00,82.5,76.5,30.09,SE,146,0.0,3.0,82,0.00,,,0.00,WUHU216DAVISVP2,2013-06-10 14:23:00,
2013-06-10 10:28:00,82.7,76.0,30.09,ESE,106,0.0,3.0,80,0.00,,,0.00,WUHU216DAVISVP2,2013-06-10 14:28:00,
2013-06-10 10:33:00,82.9,76.6,30.09,SW,225,0.0,3.0,81,0.00,,,0.00,WUHU216DAVISVP2,2013-06-10 14:33:00,
2013-06-10 10:38:00,83.2,76.5,30.09,SE,146,0.0,3.0,80,0.00,,,0.00,WUHU216DAVISVP2,2013-06-10 14:38:00,
2013-06-10 10:43:00,83.4,76.3,30.09,NE,45,0.0,3.0,79,0.00,,,0.00,WUHU216DAVISVP2,2013-06-10 14:43:00,
2013-06-10 10:48:00,83.5,76.4,30.09,SW,226,0.0,3.0,79,0.00,,,0.00,WUHU216DAVISVP2,2013-06-10 14:48:00,
2013-06-10 10:53:00,83.7,76.6,30.09,East,79,0.0,3.0,79,0.00,,,0.00,WUHU216DAVISVP2,2013-06-10 14:53:00,
2013-06-10 10:58:00,83.9,76.8,30.09,ENE,69,0.0,2.0,79,0.00,,,0.00,WUHU216DAVISVP2,2013-06-10 14:58:00,
2013-06-10 11:03:00,84.1,77.0,30.09,East,79,0.0,1.0,79,0.00,,,0.00,WUHU216DAVISVP2,2013-06-10 15:03:00,
2013-06-10 11:08:00,84.4,76.6,30.09,ENE,78,0.0,1.0,77,0.00,,,0.00,WUHU216DAVISVP2,2013-06-10 15:08:00,
2013-06-10 11:13:00,84.5,76.7,30.09,ENE,58,0.0,2.0,77,0.00,,,0.00,WUHU216DAVISVP2,2013-06-10 15:13:00,
2013-06-10 11:18:00,84.7,76.9,30.09,SSE,148,0.0,3.0,77,0.00,,,0.00,WUHU216DAVISVP2,2013-06-10 15:18:00,
2013-06-10 11:23:00,85.2,76.6,30.09,WNW,282,0.0,3.0,75,0.00,,,0.00,WUHU216DAVISVP2,2013-06-10 15:23:00,
2013-06-10 11:28:00,85.5,76.5,30.09,ENE,59,0.0,3.0,74,0.00,,,0.00,WUHU216DAVISVP2,2013-06-10 15:28:00,
2013-06-10 11:33:00,85.5,76.5,30.09,ENE,60,0.0,2.0,74,0.00,,,0.00,WUHU216DAVISVP2,2013-06-10 15:33:00,
2013-06-10 11:38:00,85.6,76.6,30.08,ENE,57,0.0,2.0,74,0.00,,,0.00,WUHU216DAVISVP2,2013-06-10 15:38:00,
2013-06-10 11:43:00,85.8,76.0,30.08,NE,55,0.0,1.0,72,0.00,,,0.00,WUHU216DAVISVP2,2013-06-10 15:43:00,
2013-06-10 11:48:00,85.9,77.3,30.08,NE,49,0.0,1.0,75,0.00,,,0.00,WUHU216DAVISVP2,2013-06-10 15:48:00,
2013-06-10 11:53:00,86.4,77.3,30.08,NE,51,0.0,1.0,74,0.00,,,0.00,WUHU216DAVISVP2,2013-06-10 15:53:00,
2013-06-10 11:58:00,86.6,77.1,30.08,SSW,195,0.0,1.0,73,0.00,,,0.00,WUHU216DAVISVP2,2013-06-10 15:58:00,
2013-06-10 12:03:00,87.1,77.6,30.08,North,350,0.0,4.0,73,0.00,,,0.00,WUHU216DAVISVP2,2013-06-10 16:03:00,
2013-06-10 12:08:00,87.4,77.1,30.08,ESE,108,0.0,4.0,71,0.00,,,0.00,WUHU216DAVISVP2,2013-06-10 16:08:00,
2013-06-10 12:13:00,87.9,77.2,30.08,NE,39,0.0,4.0,70,0.00,,,0.00,WUHU216DAVISVP2,2013-06-10 16:13:00,
2013-06-10 12:18:00,88.2,77.9,30.08,NE,39,0.0,4.0,71,0.00,,,0.00,WUHU216DAVISVP2,2013-06-10 16:18:00,
2013-06-10 12:23:00,88.5,79.8,30.08,SE,142,0.0,1.0,75,0.00,,,0.00,WUHU216DAVISVP2,2013-06-10 16:23:00,
2013-06-10 12:28:00,88.2,79.5,30.08,South,190,3.0,4.0,75,0.00,,,0.00,WUHU216DAVISVP2,2013-06-10 16:28:00,
2013-06-10 12:33:00,88.1,80.5,30.07,South,173,0.0,4.0,78,0.00,,,0.00,WUHU216DAVISVP2,2013-06-10 16:33:00,
2013-06-10 12:38:00,87.7,79.4,30.07,East,84,0.0,4.0,76,0.00,,,0.00,WUHU216DAVISVP2,2013-06-10 16:38:00,
2013-06-10 12:43:00,87.2,79.3,30.07,ENE,78,1.0,4.0,77,0.00,,,0.00,WUHU216DAVISVP2,2013-06-10 16:43:00,
2013-06-10 12:48:00,86.4,78.9,30.07,ENE,69,0.0,2.0,78,0.00,,,0.00,WUHU216DAVISVP2,2013-06-10 16:48:00,
2013-06-10 12:53:00,85.9,79.1,30.07,NE,34,0.0,2.0,80,0.00,,,0.00,WUHU216DAVISVP2,2013-06-10 16:53:00,
2013-06-10 12:58:00,85.7,79.0,30.08,North,5,0.0,2.0,80,0.00,,,0.00,WUHU216DAVISVP2,2013-06-10 16:58:00,
2013-06-10 13:03:00,85.5,79.1,30.07,NE,35,0.0,2.0,81,0.00,,,0.00,WUHU216DAVISVP2,2013-06-10 17:03:00,
2013-06-10 13:08:00,85.2,78.8,30.07,NNW,348,0.0,1.0,81,0.00,,,0.00,WUHU216DAVISVP2,2013-06-10 17:08:00,
2013-06-10 13:13:00,85.1,79.1,30.07,NE,40,0.0,1.0,82,0.00,,,0.00,WUHU216DAVISVP2,2013-06-10 17:13:00,
2013-06-10 13:18:00,84.7,78.3,30.07,NNE,30,0.0,1.0,81,0.00,,,0.00,WUHU216DAVISVP2,2013-06-10 17:18:00,
2013-06-10 13:23:00,84.4,78.8,30.07,ENE,67,0.0,2.0,83,0.00,,,0.00,WUHU216DAVISVP2,2013-06-10 17:23:00,
2013-06-10 13:28:00,84.4,78.4,30.07,ENE,67,0.0,3.0,82,0.00,,,0.00,WUHU216DAVISVP2,2013-06-10 17:28:00,
2013-06-10 13:33:00,84.1,78.5,30.07,ENE,66,0.0,3.0,83,0.00,,,0.00,WUHU216DAVISVP2,2013-06-10 17:33:00,
2013-06-10 13:38:00,84.5,78.9,30.07,East,92,0.0,3.0,83,0.00,,,0.00,WUHU216DAVISVP2,2013-06-10 17:38:00,
2013-06-10 13:43:00,84.5,78.5,30.07,NNE,12,1.0,3.0,82,0.00,,,0.00,WUHU216DAVISVP2,2013-06-10 17:43:00,
2013-06-10 13:48:00,84.0,78.7,30.07,ENE,58,1.0,4.0,84,0.00,,,0.00,WUHU216DAVISVP2,2013-06-10 17:48:00,
2013-06-10 13:53:00,83.6,78.7,30.07,ENE,69,0.0,4.0,85,0.00,,,0.00,WUHU216DAVISVP2,2013-06-10 17:53:00,
2013-06-10 13:58:00,83.8,78.9,30.06,NNE,18,0.0,4.0,85,0.00,,,0.00,WUHU216DAVISVP2,2013-06-10 17:58:00,
2013-06-10 14:03:00,84.1,78.5,30.06,East,89,0.0,3.0,83,0.00,,,0.00,WUHU216DAVISVP2,2013-06-10 18:03:00,
2013-06-10 14:08:00,84.6,79.3,30.06,NE,47,2.0,3.0,84,0.00,,,0.00,WUHU216DAVISVP2,2013-06-10 18:08:00,
2013-06-10 14:13:00,85.1,79.1,30.06,East,94,0.0,3.0,82,0.00,,,0.00,WUHU216DAVISVP2,2013-06-10 18:13:00,
2013-06-10 14:18:00,85.2,78.8,30.06,East,79,1.0,3.0,81,0.00,,,0.00,WUHU216DAVISVP2,2013-06-10 18:18:00,
2013-06-10 14:23:00,84.9,78.5,30.05,ENE,74,0.0,3.0,81,0.00,,,0.00,WUHU216DAVISVP2,2013-06-10 18:23:00,
2013-06-10 14:28:00,85.1,79.1,30.05,ENE,68,1.0,3.0,82,0.00,,,0.00,WUHU216DAVISVP2,2013-06-10 18:28:00,
2013-06-10 14:33:00,85.0,79.0,30.05,ENE,73,3.0,6.0,82,0.00,,,0.00,WUHU216DAVISVP2,2013-06-10 18:33:00,
2013-06-10 14:38:00,84.6,78.6,30.05,ENE,65,2.0,6.0,82,0.00,,,0.00,WUHU216DAVISVP2,2013-06-10 18:38:00,
2013-06-10 14:43:00,84.3,78.7,30.05,NNE,17,0.0,6.0,83,0.00,,,0.00,WUHU216DAVISVP2,2013-06-10 18:43:00,
2013-06-10 14:48:00,84.5,79.2,30.05,NE,49,0.0,4.0,84,0.00,,,0.00,WUHU216DAVISVP2,2013-06-10 18:48:00,
2013-06-10 14:53:00,84.8,79.1,30.05,NE,49,0.0,4.0,83,0.00,,,0.00,WUHU216DAVISVP2,2013-06-10 18:53:00,
2013-06-10 14:58:00,85.2,79.5,30.05,NE,52,0.0,3.0,83,0.00,,,0.00,WUHU216DAVISVP2,2013-06-10 18:58:00,
2013-06-10 15:03:00,85.2,79.2,30.04,ENE,57,3.0,5.0,82,0.00,,,0.00,WUHU216DAVISVP2,2013-06-10 19:03:00,
2013-06-10 15:08:00,85.0,79.3,30.04,ENE,74,3.0,5.0,83,0.00,,,0.00,WUHU216DAVISVP2,2013-06-10 19:08:00,
2013-06-10 15:13:00,84.9,79.6,30.04,SE,141,1.0,4.0,84,0.00,,,0.00,WUHU216DAVISVP2,2013-06-10 19:13:00,
2013-06-10 15:18:00,84.9,79.2,30.04,SE,133,0.0,4.0,83,0.00,,,0.00,WUHU216DAVISVP2,2013-06-10 19:18:00,
2013-06-10 15:23:00,84.9,78.9,30.04,NE,35,1.0,4.0,82,0.00,,,0.00,WUHU216DAVISVP2,2013-06-10 19:23:00,
2013-06-10 15:28:00,84.7,78.7,30.04,ENE,78,0.0,5.0,82,0.00,,,0.00,WUHU216DAVISVP2,2013-06-10 19:28:00,
2013-06-10 15:33:00,84.5,78.5,30.04,East,80,3.0,6.0,82,0.00,,,0.00,WUHU216DAVISVP2,2013-06-10 19:33:00,
2013-06-10 15:38:00,84.4,78.4,30.04,East,94,0.0,6.0,82,0.00,,,0.00,WUHU216DAVISVP2,2013-06-10 19:38:00,
2013-06-10 15:43:00,84.2,78.2,30.04,ENE,74,0.0,4.0,82,0.00,,,0.00,WUHU216DAVISVP2,2013-06-10 19:43:00,
2013-06-10 15:48:00,84.3,78.3,30.04,NE,55,0.0,3.0,82,0.00,,,0.00,WUHU216DAVISVP2,2013-06-10 19:48:00,
2013-06-10 15:53:00,84.3,77.6,30.04,East,80,0.0,3.0,80,0.00,,,0.00,WUHU216DAVISVP2,2013-06-10 19:53:00,
2013-06-10 15:58:00,84.0,77.3,30.04,ENE,64,0.0,3.0,80,0.00,,,0.00,WUHU216DAVISVP2,2013-06-10 19:58:00,
2013-06-10 16:03:00,83.7,77.4,30.04,ENE,59,0.0,5.0,81,0.00,,,0.00,WUHU216DAVISVP2,2013-06-10 20:03:00,
2013-06-10 16:08:00,83.9,78.3,30.04,ENE,60,0.0,5.0,83,0.00,,,0.00,WUHU216DAVISVP2,2013-06-10 20:08:00,
2013-06-10 16:13:00,84.6,77.9,30.03,ENE,59,0.0,1.0,80,0.00,,,0.00,WUHU216DAVISVP2,2013-06-10 20:13:00,
2013-06-10 16:18:00,85.4,78.7,30.03,East,80,2.0,3.0,80,0.00,,,0.00,WUHU216DAVISVP2,2013-06-10 20:18:00,
2013-06-10 16:23:00,86.1,78.2,30.03,NE,44,2.0,4.0,77,0.00,,,0.00,WUHU216DAVISVP2,2013-06-10 20:23:00,
2013-06-10 16:28:00,85.9,78.0,30.03,NE,51,1.0,4.0,77,0.00,,,0.00,WUHU216DAVISVP2,2013-06-10 20:28:00,
2013-06-10 16:33:00,85.4,77.5,30.02,NE,54,0.0,4.0,77,0.00,,,0.00,WUHU216DAVISVP2,2013-06-10 20:33:00,
2013-06-10 16:38:00,84.8,77.3,30.02,ENE,61,0.0,4.0,78,0.00,,,0.00,WUHU216DAVISVP2,2013-06-10 20:38:00,
2013-06-10 16:43:00,84.5,77.4,30.02,East,90,0.0,4.0,79,0.00,,,0.00,WUHU216DAVISVP2,2013-06-10 20:43:00,
2013-06-10 16:48:00,84.6,77.9,30.02,East,82,0.0,4.0,80,0.00,,,0.00,WUHU216DAVISVP2,2013-06-10 20:48:00,
2013-06-10 16:53:00,84.5,77.0,30.02,ENE,69,0.0,6.0,78,0.00,,,0.00,WUHU216DAVISVP2,2013-06-10 20:53:00,
2013-06-10 16:58:00,84.0,76.9,30.02,ENE,76,1.0,6.0,79,0.00,,,0.00,WUHU216DAVISVP2,2013-06-10 20:58:00,
2013-06-10 17:03:00,83.6,76.9,30.02,East,93,0.0,4.0,80,0.00,,,0.00,WUHU216DAVISVP2,2013-06-10 21:03:00,
2013-06-10 17:08:00,83.3,77.0,30.02,East,86,0.0,4.0,81,0.00,,,0.00,WUHU216DAVISVP2,2013-06-10 21:08:00,
2013-06-10 17:13:00,83.2,77.2,30.02,ENE,69,1.0,3.0,82,0.00,,,0.00,WUHU216DAVISVP2,2013-06-10 21:13:00,
2013-06-10 17:18:00,83.2,77.6,30.01,ENE,69,0.0,3.0,83,0.00,,,0.00,WUHU216DAVISVP2,2013-06-10 21:18:00,
2013-06-10 17:23:00,83.4,77.4,30.01,East,87,0.0,5.0,82,0.00,,,0.00,WUHU216DAVISVP2,2013-06-10 21:23:00,
2013-06-10 17:28:00,83.4,77.1,30.01,ENE,61,0.0,5.0,81,0.00,,,0.00,WUHU216DAVISVP2,2013-06-10 21:28:00,
2013-06-10 17:33:00,83.4,77.1,30.01,ESE,108,0.0,4.0,81,0.00,,,0.00,WUHU216DAVISVP2,2013-06-10 21:33:00,
2013-06-10 17:38:00,83.6,77.3,30.01,ENE,71,1.0,4.0,81,0.00,,,0.00,WUHU216DAVISVP2,2013-06-10 21:38:00,
2013-06-10 17:43:00,83.6,77.3,30.01,ENE,78,2.0,4.0,81,0.00,,,0.00,WUHU216DAVISVP2,2013-06-10 21:43:00,
2013-06-10 17:48:00,83.5,76.8,30.01,ENE,71,0.0,4.0,80,0.00,,,0.00,WUHU216DAVISVP2,2013-06-10 21:48:00,
2013-06-10 17:53:00,83.3,77.0,30.01,ESE,105,0.0,5.0,81,0.00,,,0.00,WUHU216DAVISVP2,2013-06-10 21:53:00,
2013-06-10 17:58:00,83.1,76.4,30.01,NE,52,0.0,5.0,80,0.00,,,0.00,WUHU216DAVISVP2,2013-06-10 21:58:00,
2013-06-10 18:03:00,83.1,76.8,30.01,NE,53,0.0,3.0,81,0.00,,,0.00,WUHU216DAVISVP2,2013-06-10 22:03:00,
2013-06-10 18:08:00,83.0,76.3,30.01,East,79,0.0,3.0,80,0.00,,,0.00,WUHU216DAVISVP2,2013-06-10 22:08:00,
2013-06-10 18:13:00,82.9,76.2,30.01,East,79,0.0,3.0,80,0.00,,,0.00,WUHU216DAVISVP2,2013-06-10 22:13:00,
2013-06-10 18:18:00,82.9,76.6,30.01,East,82,0.0,1.0,81,0.00,,,0.00,WUHU216DAVISVP2,2013-06-10 22:18:00,
2013-06-10 18:23:00,82.8,76.5,30.01,NE,53,0.0,3.0,81,0.00,,,0.00,WUHU216DAVISVP2,2013-06-10 22:23:00,
2013-06-10 18:28:00,82.7,77.1,30.00,ENE,69,1.0,3.0,83,0.00,,,0.00,WUHU216DAVISVP2,2013-06-10 22:28:00,
2013-06-10 18:33:00,82.6,77.0,30.00,SSW,192,0.0,3.0,83,0.00,,,0.00,WUHU216DAVISVP2,2013-06-10 22:33:00,
2013-06-10 18:38:00,82.5,76.9,30.00,SSW,192,0.0,2.0,83,0.00,,,0.00,WUHU216DAVISVP2,2013-06-10 22:38:00,
2013-06-10 18:43:00,82.5,76.9,30.00,SSW,192,0.0,1.0,83,0.00,,,0.00,WUHU216DAVISVP2,2013-06-10 22:43:00,
2013-06-10 18:48:00,82.6,77.0,30.00,SSW,194,0.0,1.0,83,0.00,,,0.00,WUHU216DAVISVP2,2013-06-10 22:48:00,
2013-06-10 18:53:00,82.6,76.6,30.01,SSE,167,0.0,1.0,82,0.00,,,0.00,WUHU216DAVISVP2,2013-06-10 22:53:00,
2013-06-10 18:58:00,82.5,76.5,30.01,ESE,113,0.0,1.0,82,0.00,,,0.00,WUHU216DAVISVP2,2013-06-10 22:58:00,
2013-06-10 19:03:00,82.5,76.5,30.02,ESE,113,0.0,1.0,82,0.00,,,0.00,WUHU216DAVISVP2,2013-06-10 23:03:00,
2013-06-10 19:08:00,82.5,76.5,30.02,NE,46,0.0,1.0,82,0.00,,,0.00,WUHU216DAVISVP2,2013-06-10 23:08:00,
2013-06-10 19:13:00,82.5,76.5,30.02,ENE,58,0.0,1.0,82,0.00,,,0.00,WUHU216DAVISVP2,2013-06-10 23:13:00,
2013-06-10 19:18:00,82.3,76.7,30.01,ENE,63,0.0,1.0,83,0.00,,,0.00,WUHU216DAVISVP2,2013-06-10 23:18:00,
2013-06-10 19:23:00,82.2,76.6,30.01,SSE,167,0.0,1.0,83,0.00,,,0.00,WUHU216DAVISVP2,2013-06-10 23:23:00,
2013-06-10 19:28:00,82.2,76.6,30.01,SE,135,0.0,1.0,83,0.00,,,0.00,WUHU216DAVISVP2,2013-06-10 23:28:00,
2013-06-10 19:33:00,82.2,76.9,30.01,SE,135,0.0,1.0,84,0.00,,,0.00,WUHU216DAVISVP2,2013-06-10 23:33:00,
2013-06-10 19:38:00,82.2,76.9,30.02,SE,135,0.0,1.0,84,0.00,,,0.00,WUHU216DAVISVP2,2013-06-10 23:38:00,
2013-06-10 19:43:00,82.1,76.9,30.02,East,101,0.0,1.0,84,0.00,,,0.00,WUHU216DAVISVP2,2013-06-10 23:43:00,
2013-06-10 19:48:00,81.8,76.6,30.02,East,92,0.0,3.0,84,0.00,,,0.00,WUHU216DAVISVP2,2013-06-10 23:48:00,
2013-06-10 19:53:00,81.7,76.8,30.02,ENE,57,0.0,3.0,85,0.00,,,0.00,WUHU216DAVISVP2,2013-06-10 23:53:00,
2013-06-10 19:58:00,81.6,76.7,30.03,ENE,57,0.0,1.0,85,0.00,,,0.00,WUHU216DAVISVP2,2013-06-10 23:58:00,
2013-06-10 20:03:00,81.5,76.6,30.03,ENE,59,0.0,1.0,85,0.00,,,0.00,WUHU216DAVISVP2,2013-06-11 00:03:00,
2013-06-10 20:08:00,81.5,76.6,30.03,ENE,59,0.0,1.0,85,0.00,,,0.00,WUHU216DAVISVP2,2013-06-11 00:08:00,
2013-06-10 20:13:00,81.4,76.5,30.03,ENE,58,0.0,1.0,85,0.00,,,0.00,WUHU216DAVISVP2,2013-06-11 00:13:00,
2013-06-10 20:18:00,81.4,76.5,30.03,ENE,58,0.0,1.0,85,0.00,,,0.00,WUHU216DAVISVP2,2013-06-11 00:18:00,
2013-06-10 20:23:00,81.3,76.8,30.04,ENE,58,0.0,1.0,86,0.00,,,0.00,WUHU216DAVISVP2,2013-06-11 00:23:00,
2013-06-10 20:28:00,81.3,77.1,30.04,ENE,58,0.0,1.0,87,0.00,,,0.00,WUHU216DAVISVP2,2013-06-11 00:28:00,
2013-06-10 20:33:00,81.3,77.1,30.03,ENE,58,0.0,1.0,87,0.00,,,0.00,WUHU216DAVISVP2,2013-06-11 00:33:00,
2013-06-10 20:38:00,81.2,77.3,30.03,ENE,58,0.0,0.0,88,0.00,,,0.00,WUHU216DAVISVP2,2013-06-11 00:38:00,
2013-06-10 20:43:00,81.0,77.1,30.03,ENE,58,0.0,0.0,88,0.00,,,0.00,WUHU216DAVISVP2,2013-06-11 00:43:00,
2013-06-10 20:48:00,80.8,77.3,30.03,ENE,58,0.0,0.0,89,0.00,,,0.00,WUHU216DAVISVP2,2013-06-11 00:48:00,
2013-06-10 20:53:00,80.6,77.4,30.03,ENE,58,0.0,0.0,90,0.00,,,0.00,WUHU216DAVISVP2,2013-06-11 00:53:00,
2013-06-10 20:58:00,80.2,77.0,30.03,ENE,58,0.0,0.0,90,0.00,,,0.00,WUHU216DAVISVP2,2013-06-11 00:58:00,
2013-06-10 21:03:00,80.0,77.1,30.03,ENE,58,0.0,0.0,91,0.00,,,0.00,WUHU216DAVISVP2,2013-06-11 01:03:00,
2013-06-10 21:08:00,79.7,76.8,30.03,ENE,58,0.0,0.0,91,0.00,,,0.00,WUHU216DAVISVP2,2013-06-11 01:08:00,
2013-06-10 21:13:00,79.4,76.5,30.04,ENE,58,0.0,0.0,91,0.00,,,0.00,WUHU216DAVISVP2,2013-06-11 01:13:00,
2013-06-10 21:18:00,79.3,76.4,30.04,ENE,58,0.0,0.0,91,0.00,,,0.00,WUHU216DAVISVP2,2013-06-11 01:18:00,
2013-06-10 21:23:00,79.1,76.2,30.04,ENE,58,0.0,0.0,91,0.00,,,0.00,WUHU216DAVISVP2,2013-06-11 01:23:00,
2013-06-10 21:28:00,79.0,76.5,30.04,ENE,58,0.0,0.0,92,0.00,,,0.00,WUHU216DAVISVP2,2013-06-11 01:28:00,
2013-06-10 21:33:00,78.9,76.4,30.05,ENE,58,0.0,0.0,92,0.00,,,0.00,WUHU216DAVISVP2,2013-06-11 01:33:00,
2013-06-10 21:38:00,78.9,76.4,30.04,ENE,58,0.0,0.0,92,0.00,,,0.00,WUHU216DAVISVP2,2013-06-11 01:38:00,
2013-06-10 21:43:00,78.8,76.3,30.05,ENE,58,0.0,0.0,92,0.00,,,0.00,WUHU216DAVISVP2,2013-06-11 01:43:00,
2013-06-10 21:48:00,78.7,75.8,30.05,ENE,58,0.0,0.0,91,0.00,,,0.00,WUHU216DAVISVP2,2013-06-11 01:48:00,
2013-06-10 21:53:00,78.7,75.8,30.05,ENE,58,0.0,0.0,91,0.00,,,0.00,WUHU216DAVISVP2,2013-06-11 01:53:00,
2013-06-10 21:58:00,78.7,76.2,30.05,ENE,58,0.0,0.0,92,0.00,,,0.00,WUHU216DAVISVP2,2013-06-11 01:58:00,
2013-06-10 22:03:00,78.7,76.2,30.05,ENE,58,0.0,0.0,92,0.00,,,0.00,WUHU216DAVISVP2,2013-06-11 02:03:00,
2013-06-10 22:08:00,78.6,76.1,30.05,ENE,58,0.0,0.0,92,0.00,,,0.00,WUHU216DAVISVP2,2013-06-11 02:08:00,
2013-06-10 22:13:00,78.6,76.1,30.05,ENE,58,0.0,0.0,92,0.00,,,0.00,WUHU216DAVISVP2,2013-06-11 02:13:00,
2013-06-10 22:18:00,78.6,76.1,30.05,ENE,58,0.0,0.0,92,0.00,,,0.00,WUHU216DAVISVP2,2013-06-11 02:18:00,
2013-06-10 22:23:00,78.6,76.1,30.05,ENE,58,0.0,0.0,92,0.00,,,0.00,WUHU216DAVISVP2,2013-06-11 02:23:00,
2013-06-10 22:28:00,78.5,76.0,30.05,ENE,58,0.0,0.0,92,0.00,,,0.00,WUHU216DAVISVP2,2013-06-11 02:28:00,
2013-06-10 22:33:00,78.5,75.6,30.06,ENE,58,0.0,0.0,91,0.00,,,0.00,WUHU216DAVISVP2,2013-06-11 02:33:00,
2013-06-10 22:38:00,78.4,75.5,30.06,ENE,58,0.0,0.0,91,0.00,,,0.00,WUHU216DAVISVP2,2013-06-11 02:38:00,
2013-06-10 22:43:00,78.4,75.5,30.06,ENE,58,0.0,0.0,91,0.00,,,0.00,WUHU216DAVISVP2,2013-06-11 02:43:00,
2013-06-10 22:48:00,78.5,75.6,30.06,ENE,58,0.0,0.0,91,0.00,,,0.00,WUHU216DAVISVP2,2013-06-11 02:48:00,
2013-06-10 22:53:00,78.4,75.5,30.06,ENE,58,0.0,0.0,91,0.00,,,0.00,WUHU216DAVISVP2,2013-06-11 02:53:00,
2013-06-10 22:58:00,78.4,75.5,30.06,ENE,58,0.0,0.0,91,0.00,,,0.00,WUHU216DAVISVP2,2013-06-11 02:58:00,
2013-06-10 23:03:00,78.4,75.5,30.06,ENE,58,0.0,0.0,91,0.00,,,0.00,WUHU216DAVISVP2,2013-06-11 03:03:00,
2013-06-10 23:08:00,78.4,75.5,30.06,ENE,58,0.0,0.0,91,0.00,,,0.00,WUHU216DAVISVP2,2013-06-11 03:08:00,
2013-06-10 23:13:00,78.4,75.5,30.06,ENE,58,0.0,0.0,91,0.00,,,0.00,WUHU216DAVISVP2,2013-06-11 03:13:00,
2013-06-10 23:18:00,78.4,75.5,30.06,ENE,58,0.0,0.0,91,0.00,,,0.00,WUHU216DAVISVP2,2013-06-11 03:18:00,
2013-06-10 23:23:00,78.4,75.5,30.06,ENE,58,0.0,0.0,91,0.00,,,0.00,WUHU216DAVISVP2,2013-06-11 03:23:00,
2013-06-10 23:28:00,78.4,75.9,30.06,ENE,58,0.0,0.0,92,0.00,,,0.00,WUHU216DAVISVP2,2013-06-11 03:28:00,
2013-06-10 23:33:00,78.3,75.8,30.06,ENE,58,0.0,0.0,92,0.00,,,0.00,WUHU216DAVISVP2,2013-06-11 03:33:00,
2013-06-10 23:38:00,78.3,75.8,30.06,ENE,58,0.0,0.0,92,0.00,,,0.00,WUHU216DAVISVP2,2013-06-11 03:38:00,
2013-06-10 23:43:00,78.3,75.8,30.06,ENE,58,0.0,0.0,92,0.00,,,0.00,WUHU216DAVISVP2,2013-06-11 03:43:00,
2013-06-10 23:48:00,78.2,75.7,30.06,ENE,58,0.0,0.0,92,0.00,,,0.00,WUHU216DAVISVP2,2013-06-11 03:48:00,
2013-06-10 23:53:00,78.1,75.6,30.06,ENE,58,0.0,0.0,92,0.00,,,0.00,WUHU216DAVISVP2,2013-06-11 03:53:00,
2013-06-10 23:58:00,78.0,75.5,30.06,ENE,58,0.0,0.0,92,0.00,,,0.00,WUHU216DAVISVP2,2013-06-11 03:58:00,